When you browse on this site, cookies collect data to enhance your experience and personalize the content and advertising you see.
Visit our Privacy Policy to learn more. By continuing to use the site, you agree to this use of cookies and data.
  • In Portugal
  • List of Countries
  • For 7 days
  • Water Temperature
  • Weather Map
  • Weather Widgets
  • user-avatar
    Login

    Hourly Weather Anielewo

    Today, 21 August, Wednesday

    Time Temperature Precipitation Wind Pressure Humidity
    00:00 +18°C° 2.9 mm 4 mps 756 mmHg 81%
    01:00 +17°C° 0 mm 3 mps 756 mmHg 94%
    02:00 +17°C° 2.1 mm 4 mps 757 mmHg 93%
    03:00 +15°C° 2.1 mm 5 mps 757 mmHg 92%
    04:00 +15°C° 2.1 mm 5 mps 757 mmHg 91%
    05:00 +15°C° 0.4 mm 5 mps 758 mmHg 90%
    06:00 +15°C° 0.4 mm 5 mps 758 mmHg 89%
    07:00 +15°C° 0.4 mm 4 mps 759 mmHg 89%
    08:00 +15°C° 0 mm 4 mps 759 mmHg 88%
    09:00 +17°C° 0 mm 3 mps 760 mmHg 87%
    10:00 +17°C° 0 mm 2 mps 760 mmHg 86%
    11:00 +17°C° 0 mm 2 mps 760 mmHg 82%
    12:00 +18°C° 0 mm 2 mps 761 mmHg 79%
    13:00 +19°C° 0 mm 2 mps 761 mmHg 75%
    14:00 +20°C° 0.1 mm 2 mps 761 mmHg 70%
    15:00 +21°C° 0.1 mm 2 mps 761 mmHg 65%
    16:00 +23°C° 0.1 mm 2 mps 760 mmHg 60%
    17:00 +20°C° 0 mm 2 mps 761 mmHg 64%
    18:00 +19°C° 0 mm 2 mps 761 mmHg 68%
    19:00 +19°C° 0 mm 1 mps 761 mmHg 73%
    20:00 +19°C° 0 mm 1 mps 761 mmHg 75%
    21:00 +18°C° 0 mm 1 mps 761 mmHg 76%
    22:00 +18°C° 0 mm 1 mps 761 mmHg 78%
    23:00 +16°C° 0 mm 1 mps 762 mmHg 79%

    Tomorrow, 22 August, Thursday

    Time Temperature Precipitation Wind Pressure Humidity
    00:00 +16°C° 0 mm 1 mps 762 mmHg 80%
    01:00 +15°C° 0 mm 1 mps 762 mmHg 82%
    02:00 +15°C° 0 mm 1 mps 762 mmHg 83%
    03:00 +15°C° 0 mm 1 mps 762 mmHg 83%
    04:00 +14°C° 0 mm 1 mps 762 mmHg 84%
    05:00 +15°C° 0 mm 1 mps 762 mmHg 82%
    06:00 +16°C° 0 mm 1 mps 762 mmHg 79%
    07:00 +18°C° 0 mm 1 mps 763 mmHg 77%
    08:00 +18°C° 0 mm 2 mps 763 mmHg 71%
    09:00 +20°C° 0 mm 2 mps 763 mmHg 66%
    10:00 +21°C° 0 mm 2 mps 763 mmHg 61%
    11:00 +23°C° 0 mm 2 mps 762 mmHg 57%
    12:00 +24°C° 0 mm 2 mps 762 mmHg 53%
    13:00 +25°C° 0 mm 2 mps 762 mmHg 49%
    14:00 +25°C° 0 mm 2 mps 762 mmHg 48%
    15:00 +25°C° 0 mm 2 mps 761 mmHg 48%
    16:00 +25°C° 0 mm 2 mps 761 mmHg 47%
    17:00 +24°C° 0 mm 2 mps 761 mmHg 52%
    18:00 +21°C° 0 mm 2 mps 761 mmHg 58%
    19:00 +20°C° 0 mm 2 mps 761 mmHg 63%
    20:00 +19°C° 0 mm 2 mps 761 mmHg 66%
    21:00 +18°C° 0 mm 2 mps 761 mmHg 69%
    22:00 +18°C° 0 mm 2 mps 761 mmHg 71%
    23:00 +17°C° 0 mm 2 mps 761 mmHg 72%

    Day after tomorrow, 23 August, Friday

    Time Temperature Precipitation Wind Pressure Humidity
    00:00 +17°C° 0 mm 2 mps 761 mmHg 73%
    01:00 +16°C° 0 mm 2 mps 762 mmHg 74%
    02:00 +16°C° 0 mm 2 mps 761 mmHg 75%
    03:00 +16°C° 0 mm 2 mps 761 mmHg 75%
    04:00 +15°C° 0 mm 2 mps 761 mmHg 76%
    05:00 +16°C° 0 mm 2 mps 761 mmHg 74%
    06:00 +17°C° 0 mm 2 mps 762 mmHg 71%
    07:00 +18°C° 0 mm 3 mps 762 mmHg 68%
    08:00 +20°C° 0 mm 3 mps 762 mmHg 63%
    09:00 +21°C° 0 mm 3 mps 762 mmHg 57%
    10:00 +24°C° 0 mm 3 mps 762 mmHg 51%
    11:00 +25°C° 0 mm 3 mps 761 mmHg 48%
    12:00 +26°C° 0 mm 4 mps 761 mmHg 44%
    13:00 +26°C° 0 mm 4 mps 761 mmHg 41%
    14:00 +26°C° 0 mm 4 mps 760 mmHg 41%
    15:00 +26°C° 0 mm 4 mps 760 mmHg 41%
    16:00 +26°C° 0 mm 4 mps 760 mmHg 42%
    17:00 +25°C° 0 mm 3 mps 760 mmHg 47%
    18:00 +22°C° 0 mm 3 mps 759 mmHg 52%
    19:00 +21°C° 0 mm 3 mps 759 mmHg 57%
    20:00 +20°C° 0 mm 3 mps 759 mmHg 58%
    21:00 +19°C° 0 mm 3 mps 760 mmHg 60%
    22:00 +18°C° 0 mm 3 mps 760 mmHg 62%
    23:00 +18°C° 0 mm 3 mps 760 mmHg 65%

    24 August, Saturday

    Time Temperature Precipitation Wind Pressure Humidity
    00:00 +17°C° 0 mm 3 mps 759 mmHg 67%
    01:00 +17°C° 0 mm 3 mps 759 mmHg 70%
    02:00 +17°C° 0 mm 3 mps 759 mmHg 73%
    03:00 +16°C° 0 mm 3 mps 759 mmHg 75%
    04:00 +16°C° 0 mm 3 mps 759 mmHg 77%
    05:00 +17°C° 0 mm 3 mps 759 mmHg 74%
    06:00 +18°C° 0 mm 4 mps 759 mmHg 72%
    07:00 +18°C° 0 mm 4 mps 759 mmHg 69%
    08:00 +20°C° 0 mm 4 mps 759 mmHg 64%
    09:00 +22°C° 0 mm 4 mps 759 mmHg 59%
    10:00 +25°C° 0 mm 5 mps 759 mmHg 53%
    11:00 +25°C° 0 mm 5 mps 758 mmHg 51%
    12:00 +26°C° 0 mm 5 mps 758 mmHg 48%
    13:00 +27°C° 0 mm 5 mps 758 mmHg 46%
    14:00 +27°C° 0 mm 4 mps 757 mmHg 46%
    15:00 +27°C° 0 mm 4 mps 757 mmHg 47%
    16:00 +27°C° 0 mm 4 mps 757 mmHg 48%
    17:00 +26°C° 0 mm 4 mps 757 mmHg 53%
    18:00 +23°C° 0 mm 4 mps 757 mmHg 58%
    19:00 +22°C° 0 mm 3 mps 757 mmHg 63%
    20:00 +21°C° 0 mm 3 mps 757 mmHg 64%
    21:00 +20°C° 0 mm 3 mps 757 mmHg 64%
    22:00 +19°C° 0 mm 3 mps 757 mmHg 65%
    23:00 +19°C° 0 mm 3 mps 757 mmHg 67%

    25 August, Sunday

    Time Temperature Precipitation Wind Pressure Humidity
    00:00 +18°C° 0 mm 3 mps 757 mmHg 68%
    01:00 +18°C° 0 mm 3 mps 757 mmHg 70%
    02:00 +17°C° 0 mm 3 mps 757 mmHg 71%
    03:00 +17°C° 0 mm 3 mps 757 mmHg 72%
    04:00 +17°C° 0 mm 4 mps 756 mmHg 73%
    05:00 +17°C° 0 mm 4 mps 757 mmHg 71%
    06:00 +18°C° 0 mm 4 mps 757 mmHg 68%
    07:00 +19°C° 0 mm 5 mps 757 mmHg 66%
    08:00 +21°C° 0 mm 5 mps 757 mmHg 62%
    09:00 +22°C° 0 mm 5 mps 757 mmHg 58%
    10:00 +25°C° 0 mm 5 mps 757 mmHg 54%
    11:00 +26°C° 0 mm 5 mps 757 mmHg 53%
    12:00 +27°C° 0 mm 5 mps 757 mmHg 52%
    13:00 +28°C° 0 mm 5 mps 756 mmHg 51%
    14:00 +28°C° 0 mm 5 mps 756 mmHg 51%
    15:00 +28°C° 0 mm 5 mps 756 mmHg 51%
    16:00 +28°C° 0 mm 5 mps 756 mmHg 51%
    17:00 +27°C° 0 mm 5 mps 755 mmHg 56%
    18:00 +25°C° 0 mm 4 mps 755 mmHg 61%
    19:00 +23°C° 0 mm 4 mps 755 mmHg 65%
    20:00 +23°C° 0 mm 4 mps 756 mmHg 66%
    21:00 +22°C° 0 mm 5 mps 756 mmHg 66%
    22:00 +21°C° 0 mm 5 mps 756 mmHg 66%
    23:00 +21°C° 0 mm 5 mps 756 mmHg 68%

    26 August, Monday

    Time Temperature Precipitation Wind Pressure Humidity
    00:00 +21°C° 0 mm 4 mps 756 mmHg 70%
    01:00 +20°C° 0 mm 4 mps 755 mmHg 72%
    02:00 +20°C° 0 mm 4 mps 755 mmHg 75%
    03:00 +19°C° 0 mm 4 mps 755 mmHg 78%
    04:00 +19°C° 0 mm 4 mps 754 mmHg 80%
    05:00 +19°C° 0 mm 4 mps 754 mmHg 79%
    06:00 +20°C° 0 mm 4 mps 754 mmHg 78%
    07:00 +21°C° 0 mm 4 mps 754 mmHg 77%
    08:00 +22°C° 0 mm 4 mps 754 mmHg 73%
    09:00 +25°C° 0 mm 4 mps 754 mmHg 68%
    10:00 +27°C° 0 mm 4 mps 754 mmHg 63%
    11:00 +28°C° 0 mm 4 mps 754 mmHg 59%
    12:00 +29°C° 0 mm 4 mps 753 mmHg 54%
    13:00 +30°C° 0 mm 4 mps 753 mmHg 50%
    14:00 +32°C° 0 mm 4 mps 753 mmHg 48%
    15:00 +31°C° 0 mm 3 mps 752 mmHg 46%
    16:00 +33°C° 0 mm 3 mps 752 mmHg 44%
    17:00 +30°C° 0.1 mm 3 mps 752 mmHg 49%
    18:00 +29°C° 0.1 mm 3 mps 752 mmHg 54%
    19:00 +27°C° 0.1 mm 3 mps 752 mmHg 58%
    20:00 +26°C° 1.1 mm 3 mps 752 mmHg 63%
    21:00 +25°C° 1.1 mm 2 mps 752 mmHg 68%
    22:00 +24°C° 1.1 mm 2 mps 752 mmHg 73%
    23:00 +24°C° 0.4 mm 2 mps 752 mmHg 75%
    Show more